Content
SEND FEEDBACK

Daily
Averages
Monthly
Summary
Canada

VANCOUVER - UNIVERSITY, BRITISH COLUMBIA


Home > North America > Canada > British Columbia
Elevation: 249 feet     Latitude: 49 15N     Longitude: 123 15W

WEATHER
 
SELECT A DAY
Number of Records: 197,603;   Date Range: 1/1/95 - 10/19/14
 
SHARE

PRINT THIS DATA

[ ← Previous Day ]
WEATHER ALMANAC - JULY 18, 2013
[ Next Day → ]
[ °C ]   °F
Weather ElementAverageHighLow
Temperature65.9 °F71.6 °F (3:00 pm)59 °F (4:00 am)
Dewpoint57.2 °F61 °F (5:00 pm)53.6 °F (3:00 am)
Humidity72.9 %82 % (2:00 am)64 % (3:00 pm)
Barometer30.18 in30.23 in (8:00 am)30.12 in (7:00 pm)
Wind Speed7.2 mph10.4 mph (2:00 am)
Weather ElementAverage
Visibility23 mi
Wind DirectionS (178.1 °)

Weather ElementTotal
Precipitation---
Cooling Degree Days0.3 (Base 65)
Growing Degree Days15.3 (Base 50)
Averaged from 26 records on July 18, 2013
WEATHER CONDITIONS BREAKOUT
WIND DIRECTION BREAKOUT
WEATHER BY HOUR - JULY 18, 2013
[ °C ]   °F
Local TimeTemperatureDewpointHumidityBarometerVisibilityWind DirectionWind SpeedGust SpeedPrecipitationEventsConditions
1:00 AM62.6 °F55.4 °F77 %30.19 in30.0 miESE (110°)9.2 mphClear
2:00 AM60.8 °F55.4 °F82 %30.19 in30.0 miESE (110°)10.4 mphClear
3:00 AM60.8 °F53.6 °F77 %30.20 in30.0 miEast (100°)10.4 mphClear
4:00 AM59.0 °F53.6 °F82 %30.20 in30.0 miESE (110°)9.2 mphPartly Cloudy
5:00 AM59.0 °F54.0 °F77 %30.20 in19.0 miESE (110°)6.9 mphScattered Clouds
5:00 AM59.0 °F53.6 °F82 %30.20 in20.0 miESE (110°)6.9 mphMostly Cloudy
6:00 AM59.0 °F53.6 °F82 %30.21 in30.0 miSSE (160°)2.3 mphScattered Clouds
7:00 AM62.6 °F55.4 °F77 %30.22 in20.0 miSSE (160°)4.6 mphOvercast
8:00 AM62.6 °F55.4 °F77 %30.23 in15.0 miSSE (160°)4.6 mphOvercast
9:00 AM66.2 °F57.2 °F73 %30.23 in15.0 miSouth (190°)4.6 mphMostly Cloudy
10:00 AM68.0 °F57.2 °F68 %30.23 in20.0 miWSW (240°)5.8 mphPartly Cloudy
11:00 AM68.0 °F59.0 °F73 %30.22 in20.0 miWSW (240°)9.2 mphPartly Cloudy
12:00 PM69.8 °F59.0 °F68 %30.21 in20.0 miWSW (250°)8.1 mphPartly Cloudy
1:00 PM68.0 °F59.0 °F73 %30.21 in20.0 miWest (260°)10.4 mphPartly Cloudy
2:00 PM68.0 °F59.0 °F73 %30.20 in20.0 miWSW (250°)9.2 mphPartly Cloudy
3:00 PM71.6 °F59.0 °F64 %30.18 in20.0 miWest (270°)5.8 mphPartly Cloudy
4:00 PM71.6 °F59.0 °F64 %30.16 in20.0 miWSW (250°)6.9 mphPartly Cloudy
5:00 PM70.0 °F61.0 °F66 %30.15 in28.0 miSW (230°)8.1 mphScattered Clouds
5:00 PM69.8 °F60.8 °F73 %30.14 in30.0 miSW (230°)8.1 mphPartly Cloudy
6:00 PM69.8 °F60.8 °F73 %30.13 in20.0 miSW (220°)8.1 mphClear
7:00 PM71.6 °F59.0 °F64 %30.12 in30.0 miSSW (210°)8.1 mphClear
8:00 PM71.6 °F59.0 °F64 %30.12 in30.0 miSSW (200°)4.6 mphClear
9:00 PM68.0 °F57.2 °F68 %30.12 in30.0 miSSE (160°)5.8 mphClear
10:00 PM66.2 °F57.2 °F73 %30.13 in20.0 miEast (100°)8.1 mphClear
11:00 PM65.0 °F57.0 °F69 %30.13 in15.0 miEast (100°)6.9 mph
11:00 PM64.4 °F57.2 °F77 %30.13 in15.0 miEast (100°)5.8 mphClear
Hourly data recorded from CYVR, located miles away from Vancouver - University, British Columbia







STORIES FROM OUR PARTNERS